| time (UTC) | temp C | wind direction | speed KPH | gust KPH | rain 1hr cm | rain 24hr cm | rain mn cm | humidity % | barometer mb |
| 20260508122620 | 8 | 159 | 4.8 | 4.8 | 0.00 | 0.00 | 0.00 | 46 | 1010.3 |
| 20260508122118 | 8 | 67 | 1.6 | 4.8 | 0.00 | 0.00 | 0.00 | 47 | 1010.4 |
| 20260508121616 | 8 | 80 | 1.6 | 8.0 | 0.00 | 0.00 | 0.00 | 47 | 1010.6 |
| 20260508121114 | 7 | 148 | 4.8 | 4.8 | 0.00 | 0.00 | 0.00 | 48 | 1010.4 |
| 20260508120611 | 7 | 83 | 1.6 | 8.0 | 0.00 | 0.00 | 0.00 | 48 | 1010.4 |
| 20260508120109 | 7 | 156 | 1.6 | 3.2 | 0.00 | 0.00 | 0.00 | 49 | 1010.3 |
| 20260508115607 | 7 | 91 | 0.0 | 3.2 | 0.00 | 0.00 | 0.00 | 50 | 1010.4 |
| 20260508115103 | 6 | 99 | 1.6 | 1.6 | 0.00 | 0.00 | 0.00 | 50 | 1010.5 |
| 20260508114600 | 6 | 106 | 0.0 | 1.6 | 0.00 | 0.00 | 0.00 | 50 | 1010.4 |
| 20260508114056 | 6 | 86 | 1.6 | 3.2 | 0.00 | 0.00 | 0.00 | 50 | 1010.5 |
| 20260508113554 | 6 | 88 | 1.6 | 3.2 | 0.00 | 0.00 | 0.00 | 51 | 1010.2 |
| 20260508113052 | 6 | 92 | 0.0 | 1.6 | 0.00 | 0.00 | 0.00 | 51 | 1010.5 |
| 20260508112548 | 6 | 111 | 1.6 | 1.6 | 0.00 | 0.00 | 0.00 | 51 | 1010.3 |
| 20260508112045 | 6 | 107 | 0.0 | 1.6 | 0.00 | 0.00 | 0.00 | 51 | 1010.4 |
| 20260508111542 | 6 | 127 | 3.2 | 3.2 | 0.00 | 0.00 | 0.00 | 51 | 1010.5 |
| 20260508111039 | 6 | 115 | 0.0 | 0.0 | 0.00 | 0.00 | 0.00 | 51 | 1010.6 |
| 20260508110537 | 6 | 124 | 0.0 | 1.6 | 0.00 | 0.00 | 0.00 | 51 | 1010.2 |
| 20260508110032 | 5 | 127 | 0.0 | 4.8 | 0.00 | 0.00 | 0.00 | 51 | 1010.3 |
| 20260508105527 | 5 | 130 | 0.0 | 1.6 | 0.00 | 0.00 | 0.00 | 51 | 1010.2 |
| 20260508105025 | 5 | 109 | 1.6 | 3.2 | 0.00 | 0.00 | 0.00 | 51 | 1010.4 |
| 20260508104523 | 5 | 130 | 0.0 | 0.0 | 0.00 | 0.00 | 0.00 | 51 | 1010.3 |
| 20260508104019 | 6 | 102 | 0.0 | 1.6 | 0.00 | 0.00 | 0.00 | 51 | 1010.4 |
| 20260508103516 | 6 | 103 | 0.0 | 1.6 | 0.00 | 0.00 | 0.00 | 50 | 1010.5 |
| 20260508103013 | 6 | 124 | 0.0 | 4.8 | 0.00 | 0.00 | 0.00 | 50 | 1010.4 |
| 20260508102511 | 6 | 117 | 3.2 | 4.8 | 0.00 | 0.00 | 0.00 | 50 | 1010.3 |
| 20260508102009 | 6 | 114 | 0.0 | 3.2 | 0.00 | 0.00 | 0.00 | 49 | 1010.4 |
| 20260508101506 | 6 | 126 | 3.2 | 3.2 | 0.00 | 0.00 | 0.00 | 49 | 1010.4 |
| 20260508101003 | 6 | 137 | 1.6 | 3.2 | 0.00 | 0.00 | 0.00 | 49 | 1010.5 |
| 20260508100501 | 6 | 144 | 1.6 | 1.6 | 0.00 | 0.00 | 0.00 | 49 | 1010.5 |
| 20260508095957 | 6 | 141 | 0.0 | 3.2 | 0.00 | 0.00 | 0.00 | 49 | 1010.6 |
| 20260508095455 | 6 | 155 | 1.6 | 3.2 | 0.00 | 0.00 | 0.00 | 49 | 1010.4 |
| 20260508094951 | 6 | 137 | 1.6 | 4.8 | 0.00 | 0.00 | 0.00 | 48 | 1010.5 |
| 20260508094448 | 6 | 112 | 6.4 | 11.3 | 0.00 | 0.00 | 0.00 | 47 | 1010.6 |
| 20260508093945 | 6 | 111 | 3.2 | 4.8 | 0.00 | 0.00 | 0.00 | 48 | 1010.5 |
| 20260508093442 | 6 | 138 | 1.6 | 4.8 | 0.00 | 0.00 | 0.00 | 47 | 1010.5 |
| 20260508092940 | 6 | 115 | 3.2 | 8.0 | 0.00 | 0.00 | 0.00 | 47 | 1010.5 |
| 20260508092437 | 6 | 155 | 1.6 | 3.2 | 0.00 | 0.00 | 0.00 | 47 | 1010.6 |
| 20260508091936 | 6 | 122 | 4.8 | 8.0 | 0.00 | 0.00 | 0.00 | 47 | 1010.5 |
| 20260508091432 | 7 | 112 | 1.6 | 11.3 | 0.00 | 0.00 | 0.00 | 46 | 1010.7 |
| 20260508090929 | 7 | 129 | 1.6 | 4.8 | 0.00 | 0.00 | 0.00 | 47 | 1010.6 |
| 20260508090428 | 6 | 114 | 1.6 | 8.0 | 0.00 | 0.00 | 0.00 | 47 | 1010.7 |
| 20260508085923 | 7 | 149 | 1.6 | 8.0 | 0.00 | 0.00 | 0.00 | 46 | 1010.5 |
| 20260508085420 | 7 | 93 | 3.2 | 4.8 | 0.00 | 0.00 | 0.00 | 46 | 1010.7 |
| 20260508084917 | 7 | 74 | 3.2 | 8.0 | 0.00 | 0.00 | 0.00 | 46 | 1010.6 |
| 20260508084414 | 7 | 108 | 0.0 | 4.8 | 0.00 | 0.00 | 0.00 | 47 | 1010.5 |
| 20260508083912 | 7 | 114 | 1.6 | 3.2 | 0.00 | 0.00 | 0.00 | 46 | 1010.6 |
| 20260508083409 | 7 | 126 | 4.8 | 4.8 | 0.00 | 0.00 | 0.00 | 46 | 1010.6 |
| 20260508082908 | 7 | 88 | 4.8 | 11.3 | 0.00 | 0.00 | 0.00 | 46 | 1010.8 |
| 20260508082406 | 7 | 136 | 3.2 | 4.8 | 0.00 | 0.00 | 0.00 | 46 | 1010.8 |
| 20260508081904 | 7 | 129 | 3.2 | 9.7 | 0.00 | 0.00 | 0.00 | 46 | 1010.7 |
| 20260508081401 | 7 | 128 | 3.2 | 3.2 | 0.00 | 0.00 | 0.00 | 46 | 1010.8 |
| 20260508080857 | 7 | 106 | 3.2 | 8.0 | 0.00 | 0.00 | 0.00 | 46 | 1010.8 |
| 20260508080355 | 7 | 104 | 1.6 | 8.0 | 0.00 | 0.00 | 0.00 | 46 | 1010.8 |
| 20260508075851 | 7 | 153 | 3.2 | 9.7 | 0.00 | 0.00 | 0.00 | 46 | 1010.8 |
| 20260508075349 | 7 | 111 | 6.4 | 11.3 | 0.00 | 0.00 | 0.00 | 46 | 1011.0 |
| 20260508074846 | 7 | 131 | 4.8 | 8.0 | 0.00 | 0.00 | 0.00 | 45 | 1011.1 |
| 20260508074343 | 7 | 119 | 3.2 | 9.7 | 0.00 | 0.00 | 0.00 | 46 | 1010.9 |
| 20260508073840 | 7 | 99 | 1.6 | 11.3 | 0.00 | 0.00 | 0.00 | 46 | 1011.0 |
| 20260508073338 | 7 | 144 | 4.8 | 4.8 | 0.00 | 0.00 | 0.00 | 46 | 1010.9 |
| 20260508072835 | 7 | 133 | 1.6 | 8.0 | 0.00 | 0.00 | 0.00 | 46 | 1010.8 |
| 20260508072331 | 7 | 80 | 1.6 | 9.7 | 0.00 | 0.00 | 0.00 | 46 | 1011.1 |
| 20260508071828 | 7 | 131 | 3.2 | 9.7 | 0.00 | 0.00 | 0.00 | 46 | 1011.1 |
| 20260508071327 | 7 | 113 | 4.8 | 9.7 | 0.00 | 0.00 | 0.00 | 46 | 1011.2 |
| 20260508070824 | 7 | 122 | 1.6 | 3.2 | 0.00 | 0.00 | 0.00 | 47 | 1011.1 |
| 20260508070322 | 7 | 102 | 0.0 | 4.8 | 0.00 | 0.00 | 0.00 | 47 | 1011.2 |
| 20260508065819 | 7 | 106 | 0.0 | 3.2 | 0.00 | 0.00 | 0.00 | 46 | 1011.1 |
| 20260508065317 | 7 | 112 | 1.6 | 3.2 | 0.00 | 0.00 | 0.00 | 46 | 1011.1 |
| 20260508064815 | 7 | 90 | 1.6 | 8.0 | 0.00 | 0.00 | 0.00 | 47 | 1011.2 |
| 20260508064312 | 7 | 115 | 3.2 | 3.2 | 0.00 | 0.00 | 0.00 | 46 | 1011.1 |
| 20260508063810 | 7 | 136 | 3.2 | 3.2 | 0.00 | 0.00 | 0.00 | 46 | 1011.3 |
| 20260508063308 | 7 | 127 | 1.6 | 4.8 | 0.00 | 0.00 | 0.00 | 46 | 1011.2 |
| 20260508062804 | 7 | 100 | 0.0 | 4.8 | 0.00 | 0.00 | 0.00 | 47 | 1011.4 |
| 20260508062306 | 7 | 129 | 1.6 | 3.2 | 0.00 | 0.00 | 0.00 | 47 | 1011.4 |
| 20260508061759 | 7 | 108 | 0.0 | 1.6 | 0.00 | 0.00 | 0.00 | 48 | 1011.5 |
| 20260508061256 | 7 | 215 | 0.0 | 1.6 | 0.00 | 0.00 | 0.00 | 47 | 1011.2 |
| 20260508060752 | 7 | 187 | 0.0 | 1.6 | 0.00 | 0.00 | 0.00 | 48 | 1011.5 |
| 20260508060251 | 7 | 152 | 0.0 | 1.6 | 0.00 | 0.00 | 0.00 | 49 | 1011.5 |
| 20260508055745 | 7 | 111 | 1.6 | 3.2 | 0.00 | 0.00 | 0.00 | 49 | 1011.5 |
| 20260508055243 | 7 | 188 | 0.0 | 0.0 | 0.00 | 0.00 | 0.00 | 50 | 1011.5 |
| 20260508054739 | 7 | 135 | 0.0 | 1.6 | 0.00 | 0.00 | 0.00 | 50 | 1011.5 |
| 20260508054237 | 7 | 154 | 0.0 | 1.6 | 0.00 | 0.00 | 0.00 | 50 | 1011.4 |
| 20260508053734 | 7 | 140 | 1.6 | 1.6 | 0.00 | 0.00 | 0.00 | 50 | 1011.5 |
| 20260508053231 | 7 | 175 | 0.0 | 1.6 | 0.00 | 0.00 | 0.00 | 50 | 1011.6 |
| 20260508052728 | 7 | 186 | 0.0 | 0.0 | 0.00 | 0.00 | 0.00 | 50 | 1011.4 |
| 20260508052225 | 7 | 113 | 0.0 | 0.0 | 0.00 | 0.00 | 0.00 | 49 | 1011.6 |
| 20260508051722 | 7 | 97 | 1.6 | 3.2 | 0.00 | 0.00 | 0.00 | 47 | 1011.5 |
| 20260508051217 | 7 | 134 | 0.0 | 1.6 | 0.00 | 0.00 | 0.00 | 49 | 1011.7 |
| 20260508050714 | 8 | 188 | 0.0 | 0.0 | 0.00 | 0.00 | 0.00 | 46 | 1011.8 |
| 20260508050211 | 7 | 180 | 0.0 | 1.6 | 0.00 | 0.00 | 0.00 | 47 | 1011.7 |
| 20260508045706 | 7 | 229 | 0.0 | 0.0 | 0.00 | 0.00 | 0.00 | 47 | 1011.5 |
| 20260508045205 | 8 | 183 | 0.0 | 1.6 | 0.00 | 0.00 | 0.00 | 46 | 1011.8 |
| 20260508044702 | 8 | 144 | 0.0 | 1.6 | 0.00 | 0.00 | 0.00 | 45 | 1011.6 |
| 20260508044158 | 8 | 194 | 0.0 | 1.6 | 0.00 | 0.00 | 0.00 | 45 | 1011.7 |
| 20260508043654 | 8 | 179 | 0.0 | 1.6 | 0.00 | 0.00 | 0.00 | 44 | 1011.7 |
| 20260508043152 | 8 | 202 | 0.0 | 1.6 | 0.00 | 0.00 | 0.00 | 44 | 1011.8 |
| 20260508042648 | 8 | 195 | 0.0 | 0.0 | 0.00 | 0.00 | 0.00 | 44 | 1011.8 |
| 20260508042146 | 8 | 217 | 0.0 | 1.6 | 0.00 | 0.00 | 0.00 | 44 | 1011.8 |
| 20260508041642 | 8 | 196 | 0.0 | 1.6 | 0.00 | 0.00 | 0.00 | 43 | 1012.2 |
| 20260508041139 | 8 | 208 | 0.0 | 1.6 | 0.00 | 0.00 | 0.00 | 44 | 1012.0 |
| 20260508040635 | 8 | 166 | 1.6 | 1.6 | 0.00 | 0.00 | 0.00 | 45 | 1012.0 |
| 20260508040133 | 8 | 207 | 0.0 | 0.0 | 0.00 | 0.00 | 0.00 | 45 | 1011.8 |
| 20260508035630 | 8 | 217 | 0.0 | 0.0 | 0.00 | 0.00 | 0.00 | 45 | 1012.1 |
| 20260508035127 | 8 | 192 | 0.0 | 1.6 | 0.00 | 0.00 | 0.00 | 44 | 1012.1 |
| 20260508034624 | 8 | 165 | 1.6 | 1.6 | 0.00 | 0.00 | 0.00 | 45 | 1012.4 |
| 20260508034121 | 8 | 249 | 0.0 | 0.0 | 0.00 | 0.00 | 0.00 | 44 | 1012.1 |
| 20260508033618 | 8 | 260 | 0.0 | 0.0 | 0.00 | 0.00 | 0.00 | 45 | 1012.3 |
| 20260508033117 | 8 | 221 | 0.0 | 0.0 | 0.00 | 0.00 | 0.00 | 45 | 1012.2 |
| 20260508032613 | 8 | 251 | 0.0 | 0.0 | 0.00 | 0.00 | 0.00 | 44 | 1012.1 |
| 20260508032110 | 8 | 271 | 0.0 | 0.0 | 0.00 | 0.00 | 0.00 | 44 | 1012.4 |
| 20260508031608 | 8 | 254 | 0.0 | 0.0 | 0.00 | 0.00 | 0.00 | 44 | 1012.4 |
| 20260508031103 | 8 | 279 | 0.0 | 0.0 | 0.00 | 0.00 | 0.00 | 44 | 1012.2 |
| 20260508030600 | 8 | 279 | 0.0 | 1.6 | 0.00 | 0.00 | 0.00 | 43 | 1012.1 |
| 20260508030058 | 8 | 237 | 0.0 | 0.0 | 0.00 | 0.00 | 0.00 | 43 | 1012.4 |
| 20260508025554 | 8 | 237 | 0.0 | 0.0 | 0.00 | 0.00 | 0.00 | 43 | 1012.3 |
| 20260508025051 | 8 | 237 | 0.0 | 0.0 | 0.00 | 0.00 | 0.00 | 43 | 1012.2 |
| 20260508024547 | 8 | 214 | 0.0 | 0.0 | 0.00 | 0.00 | 0.00 | 42 | 1012.3 |
| 20260508024044 | 9 | 214 | 0.0 | 0.0 | 0.00 | 0.00 | 0.00 | 43 | 1012.1 |
| 20260508023540 | 8 | 265 | 0.0 | 0.0 | 0.00 | 0.00 | 0.00 | 42 | 1012.1 |
| 20260508023038 | 9 | 265 | 0.0 | 0.0 | 0.00 | 0.00 | 0.00 | 42 | 1012.2 |
| 20260508022534 | 9 | 261 | 0.0 | 0.0 | 0.00 | 0.00 | 0.00 | 43 | 1012.1 |
| 20260508022031 | 9 | 261 | 0.0 | 0.0 | 0.00 | 0.00 | 0.00 | 42 | 1012.0 |
| 20260508021527 | 9 | 261 | 0.0 | 0.0 | 0.00 | 0.00 | 0.00 | 41 | 1012.0 |
| 20260508021022 | 9 | 237 | 0.0 | 0.0 | 0.00 | 0.00 | 0.00 | 42 | 1012.1 |
| 20260508020521 | 9 | 237 | 0.0 | 0.0 | 0.00 | 0.00 | 0.00 | 43 | 1011.8 |
| 20260508020018 | 9 | 220 | 0.0 | 0.0 | 0.00 | 0.00 | 0.00 | 44 | 1011.6 |
| 20260508015515 | 9 | 208 | 0.0 | 0.0 | 0.00 | 0.00 | 0.00 | 44 | 1011.7 |
| 20260508015012 | 10 | 239 | 0.0 | 0.0 | 0.00 | 0.00 | 0.00 | 44 | 1011.8 |
| 20260508014508 | 10 | 239 | 0.0 | 0.0 | 0.00 | 0.00 | 0.00 | 42 | 1011.8 |
| 20260508014005 | 10 | 265 | 0.0 | 1.6 | 0.00 | 0.00 | 0.00 | 43 | 1011.7 |
| 20260508013501 | 10 | 217 | 0.0 | 0.0 | 0.00 | 0.00 | 0.00 | 46 | 1011.7 |
| 20260508012958 | 11 | 155 | 0.0 | 0.0 | 0.00 | 0.00 | 0.00 | 40 | 1011.6 |
| 20260508012455 | 11 | 178 | 0.0 | 0.0 | 0.00 | 0.00 | 0.00 | 37 | 1011.7 |
| 20260508011953 | 11 | 194 | 0.0 | 4.8 | 0.00 | 0.00 | 0.00 | 36 | 1011.5 |
| 20260508011450 | 12 | 303 | 0.0 | 1.6 | 0.00 | 0.00 | 0.00 | 37 | 1011.6 |
| 20260508010948 | 12 | 197 | 0.0 | 1.6 | 0.00 | 0.00 | 0.00 | 36 | 1011.5 |
| 20260508010445 | 12 | 176 | 4.8 | 4.8 | 0.00 | 0.00 | 0.00 | 34 | 1011.4 |
| 20260508005942 | 12 | 228 | 1.6 | 3.2 | 0.00 | 0.00 | 0.00 | 34 | 1011.6 |
| 20260508005438 | 13 | 209 | 3.2 | 9.7 | 0.00 | 0.00 | 0.00 | 33 | 1011.4 |
| 20260508004935 | 13 | 226 | 1.6 | 4.8 | 0.00 | 0.00 | 0.00 | 32 | 1011.5 |
| 20260508004431 | 13 | 229 | 1.6 | 4.8 | 0.00 | 0.00 | 0.00 | 32 | 1011.5 |
| 20260508003928 | 13 | 243 | 4.8 | 8.0 | 0.00 | 0.00 | 0.00 | 32 | 1011.5 |
| 20260508003425 | 13 | 261 | 8.0 | 9.7 | 0.00 | 0.00 | 0.00 | 31 | 1011.4 |
| 20260508002922 | 13 | 188 | 4.8 | 14.5 | 0.00 | 0.00 | 0.00 | 31 | 1011.6 |
| 20260508002419 | 13 | 188 | 1.6 | 4.8 | 0.00 | 0.00 | 0.00 | 32 | 1011.4 |
| 20260508001915 | 13 | 220 | 6.4 | 8.0 | 0.00 | 0.00 | 0.00 | 31 | 1011.6 |
| 20260508001411 | 13 | 215 | 6.4 | 12.9 | 0.00 | 0.00 | 0.00 | 31 | 1011.4 |
| 20260508000908 | 13 | 212 | 1.6 | 4.8 | 0.00 | 0.00 | 0.00 | 31 | 1011.4 |
| 20260508000405 | 13 | 223 | 3.2 | 14.5 | 0.00 | 0.00 | 0.00 | 31 | 1011.6 |
| 20260507235901 | 13 | 185 | 6.4 | 12.9 | 0.00 | 0.00 | 0.00 | 30 | 1011.7 |
| 20260507235358 | 13 | 172 | 1.6 | 14.5 | 0.00 | 0.00 | 0.00 | 31 | 1011.7 |
| 20260507234855 | 13 | 160 | 6.4 | 14.5 | 0.00 | 0.00 | 0.00 | 30 | 1011.7 |
| 20260507234351 | 13 | 194 | 3.2 | 11.3 | 0.00 | 0.00 | 0.00 | 30 | 1011.8 |
| 20260507233848 | 13 | 272 | 4.8 | 11.3 | 0.00 | 0.00 | 0.00 | 30 | 1011.8 |
| 20260507233345 | 13 | 241 | 9.7 | 12.9 | 0.00 | 0.00 | 0.00 | 30 | 1011.7 |
| 20260507232843 | 13 | 237 | 8.0 | 12.9 | 0.00 | 0.00 | 0.00 | 30 | 1011.8 |
| 20260507232339 | 13 | 208 | 9.7 | 16.1 | 0.00 | 0.00 | 0.00 | 30 | 1011.8 |
| 20260507231837 | 13 | 133 | 6.4 | 14.5 | 0.00 | 0.00 | 0.00 | 30 | 1012.0 |
| 20260507231334 | 13 | 195 | 4.8 | 8.0 | 0.00 | 0.00 | 0.00 | 30 | 1012.2 |
| 20260507230830 | 13 | 194 | 11.3 | 20.9 | 0.00 | 0.00 | 0.00 | 30 | 1012.0 |
| 20260507230327 | 13 | 193 | 6.4 | 11.3 | 0.00 | 0.00 | 0.00 | 30 | 1012.2 |
| 20260507225827 | 13 | 163 | 1.6 | 4.8 | 0.00 | 0.00 | 0.00 | 30 | 1012.2 |
| 20260507225323 | 13 | 233 | 16.1 | 24.1 | 0.00 | 0.00 | 0.00 | 29 | 1012.3 |
| 20260507224820 | 13 | 174 | 9.7 | 12.9 | 0.00 | 0.00 | 0.00 | 29 | 1012.1 |
| 20260507224316 | 13 | 221 | 8.0 | 11.3 | 0.00 | 0.00 | 0.00 | 29 | 1012.2 |
| 20260507223812 | 13 | 179 | 8.0 | 16.1 | 0.00 | 0.00 | 0.00 | 29 | 1012.3 |
| 20260507223309 | 13 | 154 | 3.2 | 8.0 | 0.00 | 0.00 | 0.00 | 31 | 1012.1 |
| 20260507222806 | 13 | 216 | 3.2 | 4.8 | 0.00 | 0.00 | 0.00 | 29 | 1012.1 |
| 20260507222305 | 13 | 224 | 6.4 | 14.5 | 0.00 | 0.00 | 0.00 | 30 | 1012.2 |
| 20260507221800 | 13 | 189 | 4.8 | 11.3 | 0.00 | 0.00 | 0.00 | 31 | 1012.3 |
| 20260507221256 | 13 | 175 | 3.2 | 17.7 | 0.00 | 0.00 | 0.00 | 30 | 1012.6 |
| 20260507220752 | 13 | 149 | 8.0 | 17.7 | 0.00 | 0.00 | 0.00 | 30 | 1012.5 |
| 20260507220251 | 13 | 212 | 4.8 | 9.7 | 0.00 | 0.00 | 0.00 | 30 | 1012.5 |
| 20260507215746 | 13 | 150 | 1.6 | 9.7 | 0.00 | 0.00 | 0.00 | 33 | 1012.3 |
| 20260507215244 | 13 | 193 | 0.0 | 9.7 | 0.00 | 0.00 | 0.00 | 30 | 1012.5 |
| 20260507214741 | 13 | 257 | 4.8 | 8.0 | 0.00 | 0.00 | 0.00 | 28 | 1012.6 |
| 20260507214238 | 13 | 215 | 6.4 | 11.3 | 0.00 | 0.00 | 0.00 | 28 | 1012.4 |
| 20260507213733 | 13 | 196 | 12.9 | 16.1 | 0.00 | 0.00 | 0.00 | 29 | 1012.5 |
| 20260507213231 | 13 | 158 | 3.2 | 4.8 | 0.00 | 0.00 | 0.00 | 30 | 1012.5 |
| 20260507212726 | 13 | 247 | 8.0 | 11.3 | 0.00 | 0.00 | 0.00 | 30 | 1012.7 |
| 20260507212223 | 13 | 198 | 4.8 | 11.3 | 0.00 | 0.00 | 0.00 | 30 | 1012.5 |
| 20260507211720 | 12 | 259 | 6.4 | 16.1 | 0.00 | 0.00 | 0.00 | 30 | 1012.7 |
| 20260507211216 | 13 | 281 | 4.8 | 16.1 | 0.00 | 0.00 | 0.00 | 30 | 1012.7 |
| 20260507210714 | 13 | 273 | 6.4 | 9.7 | 0.00 | 0.00 | 0.00 | 30 | 1012.8 |
| 20260507210210 | 13 | 272 | 4.8 | 9.7 | 0.00 | 0.00 | 0.00 | 31 | 1012.7 |
| 20260507205707 | 12 | 166 | 6.4 | 25.7 | 0.00 | 0.00 | 0.00 | 31 | 1012.6 |
| 20260507205203 | 13 | 204 | 3.2 | 12.9 | 0.00 | 0.00 | 0.00 | 31 | 1012.9 |
| 20260507204659 | 12 | 194 | 4.8 | 11.3 | 0.00 | 0.00 | 0.00 | 31 | 1012.8 |
| 20260507204158 | 12 | 236 | 3.2 | 8.0 | 0.00 | 0.00 | 0.00 | 31 | 1012.9 |
| 20260507203655 | 13 | 216 | 9.7 | 14.5 | 0.00 | 0.00 | 0.00 | 31 | 1013.1 |
| 20260507203152 | 12 | 205 | 11.3 | 14.5 | 0.00 | 0.00 | 0.00 | 31 | 1013.1 |
| 20260507202648 | 12 | 182 | 4.8 | 8.0 | 0.00 | 0.00 | 0.00 | 32 | 1013.1 |
| 20260507202144 | 13 | 173 | 4.8 | 12.9 | 0.00 | 0.00 | 0.00 | 31 | 1013.3 |
| 20260507201639 | 12 | 165 | 4.8 | 8.0 | 0.00 | 0.00 | 0.00 | 31 | 1013.4 |
| 20260507201137 | 12 | 218 | 1.6 | 3.2 | 0.00 | 0.00 | 0.00 | 31 | 1013.2 |
| 20260507200632 | 13 | 189 | 3.2 | 14.5 | 0.00 | 0.00 | 0.00 | 33 | 1013.5 |
| 20260507200129 | 13 | 227 | 4.8 | 12.9 | 0.00 | 0.00 | 0.00 | 30 | 1013.3 |
| 20260507195626 | 12 | 38 | 1.6 | 3.2 | 0.00 | 0.00 | 0.00 | 31 | 1013.6 |
| 20260507195123 | 11 | 158 | 1.6 | 9.7 | 0.00 | 0.00 | 0.00 | 32 | 1013.3 |
| 20260507194620 | 12 | 192 | 6.4 | 14.5 | 0.00 | 0.00 | 0.00 | 32 | 1013.5 |
| 20260507194115 | 11 | 199 | 6.4 | 11.3 | 0.00 | 0.00 | 0.00 | 32 | 1013.7 |
| 20260507193612 | 11 | 250 | 8.0 | 16.1 | 0.00 | 0.00 | 0.00 | 33 | 1013.5 |
| 20260507193109 | 11 | 227 | 11.3 | 20.9 | 0.00 | 0.00 | 0.00 | 32 | 1013.3 |
| 20260507192606 | 11 | 246 | 8.0 | 11.3 | 0.00 | 0.00 | 0.00 | 32 | 1013.3 |
| 20260507192103 | 12 | 294 | 9.7 | 11.3 | 0.00 | 0.00 | 0.00 | 31 | 1013.6 |
| 20260507191558 | 12 | 200 | 0.0 | 9.7 | 0.00 | 0.00 | 0.00 | 32 | 1013.6 |
| 20260507191055 | 12 | 233 | 1.6 | 9.7 | 0.00 | 0.00 | 0.00 | 31 | 1013.8 |
| 20260507190552 | 12 | 234 | 1.6 | 8.0 | 0.00 | 0.00 | 0.00 | 35 | 1013.6 |
| 20260507190051 | 11 | 175 | 4.8 | 9.7 | 0.00 | 0.00 | 0.00 | 32 | 1013.5 |
| 20260507185549 | 12 | 217 | 11.3 | 20.9 | 0.00 | 0.00 | 0.00 | 31 | 1013.6 |
| 20260507185045 | 11 | 129 | 1.6 | 4.8 | 0.00 | 0.00 | 0.00 | 32 | 1013.5 |
| 20260507184544 | 11 | 248 | 1.6 | 9.7 | 0.00 | 0.00 | 0.00 | 33 | 1013.7 |
| 20260507184041 | 11 | 217 | 3.2 | 11.3 | 0.00 | 0.00 | 0.00 | 34 | 1013.9 |
| 20260507183537 | 11 | 127 | 3.2 | 12.9 | 0.00 | 0.00 | 0.00 | 32 | 1013.9 |
| 20260507183034 | 11 | 282 | 4.8 | 14.5 | 0.00 | 0.00 | 0.00 | 33 | 1013.7 |
| 20260507182530 | 11 | 194 | 1.6 | 8.0 | 0.00 | 0.00 | 0.00 | 34 | 1013.8 |
| 20260507182026 | 11 | 206 | 6.4 | 11.3 | 0.00 | 0.00 | 0.00 | 32 | 1013.9 |
| 20260507181523 | 11 | 220 | 3.2 | 12.9 | 0.00 | 0.00 | 0.00 | 35 | 1014.0 |
| 20260507181020 | 11 | 233 | 8.0 | 12.9 | 0.00 | 0.00 | 0.00 | 33 | 1013.8 |
| 20260507180516 | 11 | 150 | 1.6 | 4.8 | 0.00 | 0.00 | 0.00 | 33 | 1014.0 |
| 20260507180013 | 11 | 158 | 4.8 | 11.3 | 0.00 | 0.00 | 0.00 | 33 | 1013.8 |
| 20260507175509 | 10 | 119 | 3.2 | 11.3 | 0.00 | 0.00 | 0.00 | 32 | 1014.1 |
| 20260507175007 | 11 | 224 | 6.4 | 11.3 | 0.00 | 0.00 | 0.00 | 32 | 1014.0 |
| 20260507174504 | 11 | 227 | 8.0 | 11.3 | 0.00 | 0.00 | 0.00 | 32 | 1014.1 |
| 20260507174002 | 10 | 267 | 8.0 | 14.5 | 0.00 | 0.00 | 0.00 | 33 | 1014.0 |
| 20260507173458 | 10 | 102 | 6.4 | 8.0 | 0.00 | 0.00 | 0.00 | 33 | 1014.1 |
| 20260507172955 | 10 | 125 | 0.0 | 12.9 | 0.00 | 0.00 | 0.00 | 36 | 1014.1 |
| 20260507172451 | 10 | 160 | 8.0 | 11.3 | 0.00 | 0.00 | 0.00 | 34 | 1014.2 |
| 20260507171948 | 10 | 177 | 11.3 | 16.1 | 0.00 | 0.00 | 0.00 | 34 | 1014.3 |
| 20260507171444 | 10 | 162 | 3.2 | 11.3 | 0.00 | 0.00 | 0.00 | 33 | 1014.4 |
| 20260507170941 | 9 | 46 | 1.6 | 8.0 | 0.00 | 0.00 | 0.00 | 35 | 1014.3 |
| 20260507170438 | 10 | 151 | 1.6 | 3.2 | 0.00 | 0.00 | 0.00 | 35 | 1014.5 |
| 20260507165934 | 10 | 185 | 9.7 | 14.5 | 0.00 | 0.00 | 0.00 | 35 | 1014.4 |
| 20260507165430 | 10 | 160 | 4.8 | 11.3 | 0.00 | 0.00 | 0.00 | 35 | 1014.5 |
| 20260507164926 | 10 | 147 | 3.2 | 9.7 | 0.00 | 0.00 | 0.00 | 35 | 1014.8 |
| 20260507164423 | 10 | 207 | 3.2 | 14.5 | 0.00 | 0.00 | 0.00 | 36 | 1014.7 |
| 20260507163920 | 10 | 171 | 3.2 | 4.8 | 0.00 | 0.00 | 0.00 | 38 | 1014.7 |
| 20260507163418 | 10 | 257 | 3.2 | 4.8 | 0.00 | 0.00 | 0.00 | 39 | 1014.7 |
| 20260507162914 | 10 | 10 | 4.8 | 11.3 | 0.00 | 0.00 | 0.00 | 39 | 1014.8 |
| 20260507162410 | 9 | 298 | 6.4 | 8.0 | 0.00 | 0.00 | 0.00 | 38 | 1014.9 |
| 20260507161908 | 9 | 170 | 8.0 | 9.7 | 0.00 | 0.00 | 0.00 | 39 | 1014.9 |
| 20260507161403 | 9 | 241 | 6.4 | 8.0 | 0.00 | 0.00 | 0.00 | 39 | 1014.9 |
| 20260507160900 | 9 | 213 | 6.4 | 11.3 | 0.00 | 0.00 | 0.00 | 38 | 1014.9 |
| 20260507160356 | 10 | 50 | 0.0 | 11.3 | 0.00 | 0.00 | 0.00 | 40 | 1014.8 |
| 20260507155852 | 9 | 27 | 1.6 | 4.8 | 0.00 | 0.00 | 0.00 | 40 | 1015.0 |
| 20260507155348 | 8 | 132 | 1.6 | 4.8 | 0.00 | 0.00 | 0.00 | 42 | 1014.9 |
| 20260507154845 | 8 | 264 | 3.2 | 3.2 | 0.00 | 0.00 | 0.00 | 42 | 1015.0 |
| 20260507154342 | 8 | 351 | 0.0 | 9.7 | 0.00 | 0.00 | 0.00 | 45 | 1015.1 |
| 20260507153839 | 9 | 223 | 6.4 | 9.7 | 0.00 | 0.00 | 0.00 | 41 | 1015.1 |
| 20260507153336 | 8 | 329 | 3.2 | 8.0 | 0.00 | 0.00 | 0.00 | 42 | 1014.9 |
| 20260507152832 | 8 | 201 | 3.2 | 9.7 | 0.00 | 0.00 | 0.00 | 44 | 1015.1 |
| 20260507152329 | 8 | 209 | 9.7 | 11.3 | 0.00 | 0.00 | 0.00 | 43 | 1015.2 |
| 20260507151825 | 8 | 288 | 3.2 | 9.7 | 0.00 | 0.00 | 0.00 | 44 | 1015.1 |
| 20260507151321 | 8 | 191 | 3.2 | 4.8 | 0.00 | 0.00 | 0.00 | 45 | 1015.0 |
| 20260507150818 | 8 | 71 | 1.6 | 3.2 | 0.00 | 0.00 | 0.00 | 47 | 1014.8 |
| 20260507150315 | 7 | 188 | 11.3 | 12.9 | 0.00 | 0.00 | 0.00 | 48 | 1015.4 |
| 20260507145811 | 7 | 213 | 4.8 | 8.0 | 0.00 | 0.00 | 0.00 | 47 | 1015.1 |
| 20260507145308 | 7 | 72 | 3.2 | 3.2 | 0.00 | 0.00 | 0.00 | 45 | 1015.0 |
| 20260507144805 | 7 | 65 | 1.6 | 4.8 | 0.00 | 0.00 | 0.00 | 46 | 1015.1 |
| 20260507144302 | 7 | 79 | 3.2 | 4.8 | 0.00 | 0.00 | 0.00 | 46 | 1015.1 |
| 20260507143758 | 7 | 165 | 6.4 | 8.0 | 0.00 | 0.00 | 0.00 | 47 | 1015.1 |
| 20260507143256 | 6 | 183 | 6.4 | 8.0 | 0.00 | 0.00 | 0.00 | 46 | 1015.4 |
| 20260507142751 | 7 | 8 | 0.0 | 4.8 | 0.00 | 0.00 | 0.00 | 47 | 1015.4 |
| 20260507142248 | 7 | 261 | 6.4 | 8.0 | 0.00 | 0.00 | 0.00 | 47 | 1015.4 |
| 20260507141745 | 6 | 18 | 0.0 | 3.2 | 0.00 | 0.00 | 0.00 | 46 | 1015.2 |
| 20260507141242 | 7 | 205 | 3.2 | 9.7 | 0.00 | 0.00 | 0.00 | 47 | 1015.5 |
| 20260507140738 | 7 | 349 | 1.6 | 8.0 | 0.00 | 0.00 | 0.00 | 49 | 1015.5 |
| 20260507140236 | 6 | 344 | 1.6 | 3.2 | 0.00 | 0.00 | 0.00 | 50 | 1015.5 |
| 20260507135732 | 7 | 211 | 3.2 | 4.8 | 0.00 | 0.00 | 0.00 | 53 | 1015.5 |
| 20260507135230 | 6 | 1 | 0.0 | 3.2 | 0.00 | 0.00 | 0.00 | 51 | 1015.5 |
| 20260507134726 | 6 | 225 | 1.6 | 4.8 | 0.00 | 0.00 | 0.00 | 52 | 1015.5 |
| 20260507134222 | 6 | 16 | 1.6 | 8.0 | 0.00 | 0.00 | 0.00 | 56 | 1015.6 |
| 20260507133718 | 6 | 205 | 6.4 | 9.7 | 0.00 | 0.00 | 0.00 | 57 | 1015.6 |
| 20260507133215 | 6 | 237 | 4.8 | 9.7 | 0.00 | 0.00 | 0.00 | 57 | 1015.7 |
| 20260507132713 | 6 | 179 | 4.8 | 8.0 | 0.00 | 0.00 | 0.00 | 58 | 1015.5 |
| 20260507132209 | 6 | 221 | 1.6 | 4.8 | 0.00 | 0.00 | 0.00 | 60 | 1015.4 |
| 20260507131706 | 6 | 343 | 0.0 | 3.2 | 0.00 | 0.00 | 0.00 | 60 | 1015.7 |
| 20260507131204 | 5 | 169 | 4.8 | 4.8 | 0.00 | 0.00 | 0.00 | 60 | 1015.5 |
| 20260507130700 | 5 | 247 | 3.2 | 4.8 | 0.00 | 0.00 | 0.00 | 61 | 1015.8 |
| 20260507130158 | 5 | 330 | 0.0 | 1.6 | 0.00 | 0.00 | 0.00 | 63 | 1015.7 |
| 20260507125656 | 5 | 4 | 0.0 | 1.6 | 0.00 | 0.00 | 0.00 | 65 | 1015.6 |
| 20260507125154 | 5 | 148 | 1.6 | 1.6 | 0.00 | 0.00 | 0.00 | 66 | 1015.6 |
| 20260507124649 | 5 | 304 | 0.0 | 3.2 | 0.00 | 0.00 | 0.00 | 67 | 1015.6 |
| 20260507124147 | 5 | 259 | 1.6 | 3.2 | 0.00 | 0.00 | 0.00 | 68 | 1015.9 |
| 20260507123646 | 4 | 212 | 1.6 | 3.2 | 0.00 | 0.00 | 0.00 | 69 | 1015.7 |
| 20260507123142 | 4 | 256 | 1.6 | 3.2 | 0.00 | 0.00 | 0.00 | 70 | 1015.6 |